Regional Weather Roundup
Issued by NWS Wakefield, VA

Home | Current Version | Previous Version | Text Only | Print | Product List | Glossary Off
Versions: 1 2 3 4 5 6 7 8 9 10 11 12 13 14 15 16 17 18 19 20 21 22 23 24 25 26 27

000
ASUS41 KAKQ 242216
RWRAKQ

REGIONAL WEATHER ROUNDUP
NATIONAL WEATHER SERVICE WAKEFIELD VA
600 PM EDT SAT JUN 24 2017

Note: "fair" indicates few or no clouds below 12,000 feet with no
significant weather and/or obstructions to visibility. * = Denotes
station may not report precipitation (e.g., rain,snow,etc.),
thunder or fog.

VAZ042-051-052>054-056-242300-
NORTHERN VIRGINIA

CITY           SKY/WX    TMP DP  RH WIND       PRES   REMARKS
WASH NATIONAL  PTSUNNY   86  57  37 W12       29.89S
DULLES         CLOUDY    84  58  40 W7        29.90S
FORT BELVOIR   MOSUNNY   86  57  36 W8        29.89S
QUANTICO       SUNNY     89  56  32 NW10      29.89F
FREDERICKSBRG* SUNNY     88  59  37 NW5       29.87F
STAFFORD*      SUNNY     86  54  32 NW10      29.93F
WARRENTON      SUNNY     87  50  27 W8        29.90F
CULPEPER*      MOSUNNY   85  61  44 NW6       29.91F
MANASSAS*      MOSUNNY   85  60  42 NW8       29.90F
LEESBURG*      MOSUNNY  N/A N/A N/A W9        29.91S
WINCHESTER     CLOUDY    81  55  41 W7        29.91F
FRONT ROYAL*   MOCLDY    82  57  42 NW3       29.91S
LURAY*         MOCLDY    81  59  47 CALM      29.93S
$$

VAZ048-049-060>072-079>083-242300-
CENTRAL AND SOUTH CENTRAL VIRGINIA

CITY           SKY/WX    TMP DP  RH WIND       PRES   REMARKS
RICHMOND       CLOUDY    88  66  48 W8        29.88F
CHESTERFIELD*  FAIR      85  71  63 SW7       29.90F
PETERSBURG*    CLOUDY    85  66  53 CALM      29.91R
HANOVER        SUNNY     87  64  46 SW7       29.90F
TAPPAHANNOCK*  SUNNY     88  52  28 W7        29.89S
QUINTON*       FAIR      85  71  63 CALM      29.88S
CHARLOTTSVILLE MOSUNNY   87  59  38 VRB3      29.90F
GORDONSVILLE*  PTCLDY    87  59  38 SW3       29.90S
ORANGE*        SUNNY     84  59  42 CALM      29.90F
LOUISA*        SUNNY     90  61  37 W3        29.89F
BUMPASS*       FAIR      85  62  45 CALM      29.89F
FARMVILLE*     CLOUDY    86  61  41 SW3       29.90S
CREWE*         FAIR      83  65  53 CALM      29.91S
FORT PICKETT*  FAIR     N/A N/A N/A NW3       29.92S
CHASE CITY*    FAIR      79  79  99 CALM      29.92S
CLARKSVILLE*   CLOUDY    81  72  74 CALM      29.92R
SOUTH HILL*    CLOUDY    83  72  69 CALM      29.97R
LAWRENCEVILLE* FAIR      83  71  65 CALM      29.91S
EMPORIA*       CLOUDY    84  70  61 W3        29.92R
$$

VAZ088>098-242300-
SOUTHEAST VIRGINIA

CITY           SKY/WX    TMP DP  RH WIND       PRES   REMARKS
NORFOLK        MOSUNNY   89  68  49 VRB6      29.88S
VIRGINIA BEACH PTSUNNY   83  67  58 E8        29.88S
NORFOLK NAVAL  CLOUDY    87  70  56 S5        29.90R
WEST POINT*    PTSUNNY   86  67  53 W3        29.89S
SALUDA*        MOCLDY    87  71  58 CALM      29.88S
NEWPORT NEWS   CLOUDY    88  69  53 SW10      29.88S
LANGLEY AFB    CLOUDY    88  70  55 W8        29.88S
FORT EUSTIS    MOSUNNY   93  71  49 W5        29.86S HX  99
WILLIAMSBURG*    N/A     90  70  51 W6        29.90R HX  95
HR EXEC AP*    FAIR      86  72  62 W6        29.86
FRANKLIN*      CLOUDY    88  68  51 W5        29.89F
US460-WAKEFLD  CLOUDY    88  69  53 W6        29.89S
$$

VAZ020-022-025-037-045-242300-
WEST CENTRAL AND SOUTHWEST VIRGINIA

CITY           SKY/WX    TMP DP  RH WIND       PRES   REMARKS
STAUNTON*      SUNNY     82  59  46 W3        29.95F
WAYNESBORO*    CLEAR     81  63  54 SW6       29.95F
HOT SPRINGS VA SUNNY     72  37  28 W13G20    30.09S
LYNCHBURG      MOSUNNY   84  66  54 VRB5      29.93F
DANVILLE       CLOUDY    77  74  90 S3        29.93R
SOUTH BOSTON*  FAIR      78  77  95 CALM      29.92R
MARTINSVILLE   CLOUDY    83  71  68 S3        29.95F
ROANOKE        MOSUNNY   84  61  45 NW10      29.96S
BLACKSBURG     SUNNY     80  58  46 NW9       30.04S
DUBLIN*        SUNNY     82  45  27 NW9       30.03S
MARION*        SUNNY     80  58  47 NW9       30.06S
HILLSVILLE*    MOSUNNY   78  56  46 CALM      30.03S
RICHLANDS*     FAIR      75  58  54 NW13      30.07S
WISE*          MOSUNNY   75  55  50 W5        30.09S
ABINGDON*      PTSUNNY   80  64  56 N5        30.02F
$$

MDZ021>025-VAZ099-100-242300-
SOUTHERN MARYLAND AND THE DELMARVA PENINSULA

CITY           SKY/WX    TMP DP  RH WIND       PRES   REMARKS
PATUXENT RIVER CLOUDY    87  62  43 NW12      29.87F
BAY BRIDGE APT SUNNY     84  61  45 W10       29.88S
LEONARDTOWN    CLOUDY    84  61  45 W6        29.89F
DOVER          MOSUNNY   85  66  51 W13G20    29.85R
GEORGETOWN     CLOUDY    87  60  40 W8        29.88R
EASTON         MOSUNNY   86  57  37 NW10      29.91S
CAMBRIDGE      SUNNY     86  63  45 VRB6      29.87S
SALISBURY      MOSUNNY   85  67  54 SW9       29.87S
OCEAN CITY     MOSUNNY   85  65  51 W8        29.87S
WALLOPS ISLAND MOSUNNY   83  71  67 S9        29.89R
ACCOMACK*      CLOUDY    87  67  50 W5        29.88S
$$

NCZ012>017-030>032-242300-
NORTH CENTRAL AND EASTERN NORTH CAROLINA

CITY           SKY/WX    TMP DP  RH WIND       PRES   REMARKS
ROANOKE RAPIDS FAIR      86  72  62 CALM      29.90S
RALEIGH        TSTM      77  69  76 N9        29.92R
ELIZABETH CITY PTSUNNY   90  73  57 SW7       29.88F HX  98
AHOSKIE*         N/A     84  74  72 CALM      29.90S
EDENTON*       PTSUNNY   91  72  53 CALM      29.90S HX  98
CURRITUCK*     PTSUNNY   91  68  46 W7        29.90S HX  95
KILL DEVIL HLS PTSUNNY   86  69  56 CALM      29.89F
MANTEO         CLOUDY    85  70  60 N5        29.90F
CAPE HATTERAS  CLOUDY    82  76  81 SW13G20   29.93F HAZE
TARBORO*       NOT AVBL
GOLDSBORO      CLOUDY    78  78 100 CALM      29.90S
WASHINGTON     RAIN     N/A N/A N/A S5        29.90F
GREENVILLE     CLOUDY    86  75  70 SW8       29.92F HX  95
NEW BERN       LGT RAIN  82  78  88 SE3       29.90F
WILMINGTON     SUNNY     88  73  61 SW18G30   29.94R HX  95
$$

VAZ048-242300-
ELSEWHERE

CITY           SKY/WX    TMP DP  RH WIND       PRES   REMARKS
HARRISBURG PA  MOSUNNY   83  59  44 W10       29.85S
BALTIMORE      PTSUNNY   85  60  42 W13       29.87F
ANNAPOLIS      MOSUNNY   83  62  49 NW9       29.88S
ANDREWS AFB    MOSUNNY   85  55  35 W13       29.88F
PHILADELPHIA   MOSUNNY   86  57  37 W13       29.84S
HENDERSON NC   RAIN      78  71  79 CALM      29.92S
GREENSBORO     LGT RAIN  72  71  97 S7        29.94F
ROCKY MOUNT    LGT RAIN  78  77  96 S6        29.91R
$$

VAZ100-242300-
MARINE

STATION/POSITION TIME  TEMP    WIND        PRES    WAVE   SWELL
                       AIR SEA DIR/SP/G            HT/PER HT/PER
                 (UTC) (F)     (DEG/KT/KT) (MB)    (FT/S) (FT/S)
BRANDYWINE LGT   2142   81     300/ 16/ 17 1011.5S
CAPE MAY NJ      2142   83 76  300/ 10/ 12 1011.0R
LEWES DE         2142   84 70  290/ 14/ 20 1011.2R
15NM E FENWICK I 2150   71 67  200/  8/ 10 1012.0S   5/ 8   5/ 8
WACHAPREAGUE VA  2142   87 86  230/  6/  9 1011.7F
THOMAS POINT MD  2200   84 78  290/ 13/ 14   N/A
GOOSES REEF MD   2200   85 80  320/ 10/ 12 1012.4    1/ 2
COVE POINT MD    2142   85     320/  6/  9 1012.2F
SOLOMONS ISLAND  2142   85 76  330/  8/ 13   N/A
BISHOPS HEAD MD  2142   84 84  280/  3/  3 1012.0F
PINEY POINT MD   2142          330/  5/  5   N/A
POTOMAC MD       2200   85 79  310/  4/  4 1010.6    1
CAMBRIDGE MD     2142   87 82              1012.5S
LEWISETTA VA     2142   84 79   20/  3/  4 1011.6F
RAPPAHANNOCK LGT 2142          140/  4/  5 1012.4F
STINGRAY PT      2200   83 80  150/  4/  6 1013.0    0
YORK RVR RNG VA  2142   86     280/  7/  7 1012.1F
YORKTOWN VA      2142   88 79  270/  3/  5 1011.5F
JAMESTOWN VA     2200   86 84  280/  8/ 10   N/A     0
DOMINION TERM VA 2142   86     240/  6/  7 1012.1R
KIPTOPEKE VA     2142      80  250/  2/  3   N/A
CHES BAY BRIDGE  2142   80 76  120/  6/  8 1011.9R
CAPE HENRY VA    2142   82     130/  8/ 11   N/A
WILLOUBY STN VA  2142   85     240/  7/  8 1011.9S
S CRANEY ISL VA  2142   88     230/  7/ 11 1011.7S
CAPE HENRY BUOY  2200      72                N/A     3/ 8
1ST LANDING BUOY 2200   80 76              1011.8    1/ 4
CAPE CHARLES BUO 2151      71                N/A     3/ 8
64NM E OF VA BCH 2150   77 74  190/  8/ 10 1013.3R   5/ 8   5/ 8
DUCK PIER NC     2142   87 60  250/  5/  7 1012.0F
44100 DUCK FRF   2105      73                N/A     2/ 7
OREGON INLET NC  2142   83 84  200/ 18/ 21 1012.4F
HATTERAS NC      2142   80 78  230/ 11/ 18 1013.4F
DIAMOND SHLS NC  2150   81 80  230/ 19/ 25 1013.3F   7/ 7
CAPE LOOKOUT NC  2200   81     220/ 16/ 21 1013.4F
$$




USA.gov is the U.S. government's official web portal to all federal, state and local government web resources and services.